{"data":{"norad_id":81779,"intl_designator":"","name":"UNKNOWN","alt_names":[],"object_type":"UNKNOWN","status":"UNKNOWN","operator":null,"country":null,"launch_date":null,"launch_site_code":null,"launch_vehicle":null,"mission":null,"orbit_class":"UNKNOWN","rcs_meters":null,"size_class":null,"mass_kg":null,"dimensions":null,"purposes":[],"wikipedia_slug":null,"has_3d_model":false,"image_url":null,"decayed_at":null,"tle_current":{"epoch":"2026-05-29T19:51:25.053120Z","epoch_age_seconds":9836078,"freshness":"OLD","line1":"1 81779U          26149.82737330  .00023200  00000+0  13139+1 0  9990","line2":"2 81779  54.5230 319.1885 1529607 195.6109 159.1886  9.35320893496020","mean_motion":9.35320893,"eccentricity":0.1529607,"inclination_deg":54.523,"raan_deg":319.1885,"arg_perigee_deg":195.6109,"mean_anomaly_deg":159.1886,"bstar":1.3139,"rev_number":49602,"period_min":153.95785668609,"perigee_km":1681.7999586071,"apogee_km":4592.7713837687,"semimajor_km":9515.4226711879,"source":"CELESTRAK","updated_at":"2026-06-28T09:00:22.820884Z"}}}